CSN668 UHMO-UTIC

Flight info

Callsign CSN668
Flight time N/A
Altitude 6000
Route PEMAT DCT OKARA B957 OGEMA
Aircraft C208/L-SDFGR/C

Departure

Time 2026-05-07 01:26
Airport Markovo Airport (UHMO)

Arrival

Time N/A
Airport UTIC
Time Latitude Longitude Altitude Speed Heading
2026-05-07 01:15 64.66786 170.41607 93 ft 0 kts 177°
2026-05-07 01:20 64.66784 170.41606 93 ft 1 kts 208°
2026-05-07 01:20 64.66784 170.41594 93 ft 1 kts 301°
2026-05-07 01:20 64.66788 170.41583 97 ft 0 kts 309°
2026-05-07 01:20 64.66790 170.41577 92 ft 0 kts 307°
2026-05-07 01:21 64.66798 170.41538 95 ft 5 kts 280°
2026-05-07 01:21 64.66797 170.41520 94 ft 1 kts 241°
2026-05-07 01:21 64.66763 170.41437 95 ft 13 kts 214°
2026-05-07 01:21 64.66633 170.41409 88 ft 21 kts 180°
2026-05-07 01:22 64.66571 170.41559 86 ft 14 kts 109°
2026-05-07 01:22 64.66544 170.41790 87 ft 14 kts 101°
2026-05-07 01:22 64.66533 170.42001 91 ft 12 kts 93°
2026-05-07 01:22 64.66531 170.42200 94 ft 12 kts 89°
2026-05-07 01:23 64.66534 170.42409 94 ft 14 kts 86°
2026-05-07 01:23 64.66541 170.42660 90 ft 18 kts 89°
2026-05-07 01:23 64.66535 170.42981 85 ft 22 kts 90°
2026-05-07 01:23 64.66530 170.43347 82 ft 23 kts 93°
2026-05-07 01:24 64.66514 170.43701 87 ft 20 kts 98°
2026-05-07 01:24 64.66486 170.44017 89 ft 20 kts 90°
2026-05-07 01:24 64.66528 170.43935 92 ft 15 kts 278°
2026-05-07 01:24 64.66533 170.43847 94 ft 0 kts 276°
2026-05-07 01:25 64.66535 170.43680 90 ft 32 kts 269°
2026-05-07 01:25 64.66534 170.42766 89 ft 77 kts 272°
2026-05-07 01:26 64.66536 170.41278 183 ft 99 kts 269°
2026-05-07 01:26 64.66458 170.39670 473 ft 99 kts 259°
2026-05-07 01:26 64.66203 170.38187 749 ft 99 kts 219°
2026-05-07 01:26 64.65578 170.37978 999 ft 95 kts 162°
2026-05-07 01:27 64.64894 170.37871 1235 ft 105 kts 200°
2026-05-07 01:27 64.64305 170.36773 1514 ft 111 kts 212°
2026-05-07 01:27 64.63693 170.35632 1790 ft 114 kts 214°
2026-05-07 01:27 64.63081 170.34375 2059 ft 121 kts 215°
2026-05-07 01:28 64.62450 170.33045 2351 ft 124 kts 216°
2026-05-07 01:28 64.61796 170.31636 2632 ft 129 kts 217°
2026-05-07 01:28 64.61126 170.30203 2916 ft 132 kts 217°
2026-05-07 01:28 64.60452 170.28760 3190 ft 134 kts 216°
2026-05-07 01:29 64.59756 170.27271 3460 ft 137 kts 216°
2026-05-07 01:29 64.59061 170.25781 3719 ft 135 kts 216°
2026-05-07 01:29 64.58370 170.24299 3997 ft 134 kts 215°
2026-05-07 01:29 64.57678 170.22826 4257 ft 133 kts 215°
2026-05-07 01:30 64.57005 170.21387 4573 ft 129 kts 214°
2026-05-07 01:30 64.56361 170.20018 4910 ft 123 kts 214°
2026-05-07 01:30 64.55739 170.18699 5231 ft 119 kts 213°
2026-05-07 01:30 64.55138 170.17424 5554 ft 115 kts 213°
2026-05-07 01:31 64.54563 170.16202 5867 ft 110 kts 191°
2026-05-07 01:31 64.54183 170.15502 5987 ft 112 kts 213°
2026-05-07 01:31 64.53327 170.13583 5997 ft 139 kts 215°
2026-05-07 01:31 64.52577 170.11978 6006 ft 152 kts 216°
2026-05-07 01:32 64.52048 170.10846 5995 ft 159 kts 216°
2026-05-07 01:32 64.51213 170.09074 5991 ft 165 kts 216°
2026-05-07 01:32 64.50364 170.07252 5998 ft 167 kts 217°
2026-05-07 01:32 64.49500 170.05425 5996 ft 169 kts 216°
2026-05-07 01:33 64.48655 170.03650 6257 ft 156 kts 216°
2026-05-07 01:33 64.47875 170.02013 6553 ft 146 kts 215°
2026-05-07 01:33 64.47146 170.00477 6832 ft 138 kts 214°
2026-05-07 01:33 64.46459 169.99028 7115 ft 132 kts 214°
2026-05-07 01:34 64.45789 169.97618 7397 ft 127 kts 213°
2026-05-07 01:34 64.45145 169.96267 7686 ft 123 kts 213°
2026-05-07 01:34 64.44525 169.94963 7975 ft 118 kts 213°
2026-05-07 01:34 64.43911 169.93680 8270 ft 116 kts 212°
2026-05-07 01:35 64.43328 169.92454 8479 ft 118 kts 212°
2026-05-07 01:35 64.42664 169.91077 8489 ft 136 kts 213°
2026-05-07 01:35 64.41931 169.89527 8494 ft 149 kts 214°
2026-05-07 01:35 64.41140 169.87859 8492 ft 159 kts 215°
2026-05-07 01:36 64.40302 169.86101 8493 ft 165 kts 215°
2026-05-07 01:36 64.39444 169.84295 8489 ft 169 kts 215°
2026-05-07 01:36 64.38579 169.82478 8489 ft 171 kts 215°
2026-05-07 01:36 64.37692 169.80625 8487 ft 172 kts 215°
2026-05-07 01:37 64.36803 169.78766 8484 ft 173 kts 215°
2026-05-07 01:37 64.35904 169.76890 8483 ft 174 kts 215°
2026-05-07 01:37 64.35000 169.75007 8480 ft 175 kts 215°
2026-05-07 01:37 64.34093 169.73116 8479 ft 175 kts 215°
2026-05-07 01:38 64.33191 169.71239 8480 ft 174 kts 215°
2026-05-07 01:38 64.32279 169.69372 8477 ft 175 kts 214°
2026-05-07 01:38 64.31370 169.67510 8476 ft 174 kts 214°
2026-05-07 01:38 64.30465 169.65652 8479 ft 175 kts 214°
2026-05-07 01:39 64.29556 169.63790 8481 ft 175 kts 214°
2026-05-07 01:39 64.28652 169.61943 8474 ft 175 kts 214°
2026-05-07 01:39 64.27742 169.60080 8477 ft 176 kts 214°
2026-05-07 01:39 64.26826 169.58210 8470 ft 175 kts 214°
2026-05-07 01:40 64.25913 169.56344 8472 ft 175 kts 214°
2026-05-07 01:40 64.25002 169.54488 8470 ft 175 kts 214°
2026-05-07 01:40 64.24092 169.52637 8471 ft 175 kts 214°
2026-05-07 01:40 64.23178 169.50778 8476 ft 175 kts 214°
2026-05-07 01:41 64.22265 169.48920 8468 ft 176 kts 214°
2026-05-07 01:41 64.21348 169.47055 8467 ft 176 kts 214°
2026-05-07 01:41 64.20427 169.45184 8469 ft 177 kts 214°
2026-05-07 01:41 64.19515 169.43338 8466 ft 176 kts 214°
2026-05-07 01:42 64.18596 169.41479 8461 ft 175 kts 214°
2026-05-07 01:42 64.17683 169.39628 8461 ft 175 kts 214°
2026-05-07 01:42 64.16769 169.37784 8461 ft 175 kts 214°
2026-05-07 01:42 64.15856 169.35938 8465 ft 175 kts 214°
2026-05-07 01:43 64.14937 169.34085 8466 ft 176 kts 214°
2026-05-07 01:43 64.14013 169.32220 8469 ft 176 kts 214°
2026-05-07 01:43 64.13085 169.30345 8464 ft 177 kts 214°
2026-05-07 01:43 64.12170 169.28502 8464 ft 177 kts 214°
2026-05-07 01:44 64.11243 169.26639 8467 ft 177 kts 213°
2026-05-07 01:44 64.10316 169.24778 8464 ft 178 kts 214°
2026-05-07 01:44 64.09381 169.22903 8455 ft 177 kts 214°
2026-05-07 01:44 64.08458 169.21050 8463 ft 177 kts 213°
2026-05-07 01:45 64.07525 169.19184 8454 ft 177 kts 214°
2026-05-07 01:45 64.06606 169.17339 8455 ft 176 kts 213°
2026-05-07 01:45 64.05687 169.15506 8452 ft 176 kts 213°
2026-05-07 01:45 64.04768 169.13669 8450 ft 176 kts 213°
2026-05-07 01:46 64.03848 169.11822 8450 ft 176 kts 214°
2026-05-07 01:46 64.02929 169.09976 8448 ft 175 kts 214°
2026-05-07 01:46 64.02015 169.08146 8449 ft 175 kts 213°
2026-05-07 01:46 64.01094 169.06308 8453 ft 175 kts 213°
2026-05-07 01:47 64.00173 169.04468 8450 ft 176 kts 213°
2026-05-07 01:47 63.99262 169.02645 8452 ft 177 kts 213°
2026-05-07 01:47 63.98335 169.00794 8457 ft 177 kts 213°
2026-05-07 01:47 63.97403 168.98935 8450 ft 177 kts 213°
2026-05-07 01:48 63.96477 168.97087 8459 ft 177 kts 213°
2026-05-07 01:48 63.95549 168.95244 8450 ft 177 kts 213°
2026-05-07 01:48 63.94622 168.93395 8450 ft 178 kts 213°
2026-05-07 01:48 63.93688 168.91537 8450 ft 177 kts 213°
2026-05-07 01:49 63.92776 168.89725 8457 ft 175 kts 213°
2026-05-07 01:49 63.91843 168.87883 8444 ft 178 kts 213°
2026-05-07 01:49 63.90913 168.86034 8444 ft 178 kts 213°
2026-05-07 01:49 63.89979 168.84187 8441 ft 179 kts 213°
2026-05-07 01:50 63.89038 168.82322 8445 ft 179 kts 213°
2026-05-07 01:50 63.88109 168.80484 8445 ft 179 kts 213°
2026-05-07 01:50 63.87170 168.78631 8442 ft 180 kts 213°
2026-05-07 01:50 63.86221 168.76760 8450 ft 182 kts 213°
2026-05-07 01:51 63.85263 168.74873 8441 ft 181 kts 213°
2026-05-07 01:51 63.84314 168.73000 8444 ft 180 kts 213°
2026-05-07 01:51 63.83372 168.71148 8443 ft 178 kts 213°
2026-05-07 01:51 63.82431 168.69297 8443 ft 179 kts 213°
2026-05-07 01:52 63.81492 168.67455 8443 ft 178 kts 213°
2026-05-07 01:52 63.80566 168.65635 8441 ft 178 kts 213°
2026-05-07 01:52 63.79626 168.63796 8437 ft 179 kts 213°
2026-05-07 01:52 63.78683 168.61946 8438 ft 179 kts 213°
2026-05-07 01:53 63.77743 168.60108 8437 ft 178 kts 213°
2026-05-07 01:53 63.76815 168.58296 8442 ft 179 kts 213°
2026-05-07 01:53 63.75874 168.56456 8439 ft 178 kts 213°
2026-05-07 01:53 63.74934 168.54621 8443 ft 178 kts 213°
2026-05-07 01:54 63.73996 168.52790 8442 ft 178 kts 213°
2026-05-07 01:54 63.73056 168.50960 8439 ft 178 kts 213°
2026-05-07 01:54 63.72117 168.49136 8439 ft 178 kts 213°
2026-05-07 01:54 63.71185 168.47322 8440 ft 178 kts 213°
2026-05-07 01:55 63.70245 168.45495 8444 ft 178 kts 213°
2026-05-07 01:55 63.69305 168.43668 8439 ft 178 kts 213°
2026-05-07 01:55 63.68363 168.41841 8440 ft 178 kts 213°
2026-05-07 01:55 63.67438 168.40050 8435 ft 178 kts 213°
2026-05-07 01:56 63.66496 168.38229 8438 ft 178 kts 213°
2026-05-07 01:56 63.65553 168.36405 8445 ft 178 kts 213°
2026-05-07 01:56 63.64608 168.34580 8443 ft 178 kts 213°
2026-05-07 01:56 63.63668 168.32763 8441 ft 178 kts 213°
2026-05-07 01:57 63.62736 168.30966 8441 ft 178 kts 213°
2026-05-07 01:57 63.61796 168.29153 8441 ft 178 kts 213°
2026-05-07 01:57 63.60849 168.27334 8434 ft 180 kts 213°
2026-05-07 01:57 63.59897 168.25501 8433 ft 180 kts 213°
2026-05-07 01:58 63.58949 168.23675 8437 ft 181 kts 213°
2026-05-07 01:58 63.57988 168.21832 8439 ft 180 kts 213°
2026-05-07 01:58 63.57027 168.19985 8442 ft 181 kts 213°
2026-05-07 01:58 63.56068 168.18148 8436 ft 181 kts 213°
2026-05-07 01:59 63.55113 168.16322 8434 ft 180 kts 213°
2026-05-07 01:59 63.54157 168.14494 8434 ft 180 kts 213°
2026-05-07 01:59 63.53199 168.12662 8434 ft 179 kts 213°
2026-05-07 01:59 63.52256 168.10859 8431 ft 179 kts 213°
2026-05-07 02:00 63.51317 168.09068 8430 ft 179 kts 213°
2026-05-07 02:00 63.50365 168.07256 8428 ft 179 kts 213°
2026-05-07 02:00 63.49416 168.05449 8432 ft 179 kts 213°
2026-05-07 02:00 63.48466 168.03641 8429 ft 179 kts 213°
2026-05-07 02:01 63.47527 168.01857 8429 ft 179 kts 213°
2026-05-07 02:01 63.46583 168.00064 8429 ft 178 kts 213°
2026-05-07 02:01 63.45634 167.98265 8434 ft 179 kts 213°
2026-05-07 02:01 63.44686 167.96470 8430 ft 179 kts 213°
2026-05-07 02:02 63.43736 167.94669 8424 ft 178 kts 213°
2026-05-07 02:02 63.42786 167.92873 8435 ft 178 kts 213°
2026-05-07 02:02 63.41837 167.91075 8432 ft 178 kts 213°
2026-05-07 02:02 63.40889 167.89284 8432 ft 178 kts 213°
2026-05-07 02:03 63.39950 167.87510 8436 ft 179 kts 213°
2026-05-07 02:03 63.39000 167.85722 8436 ft 179 kts 213°
2026-05-07 02:03 63.38048 167.83926 8434 ft 179 kts 213°
2026-05-07 02:03 63.37092 167.82126 8428 ft 179 kts 213°
2026-05-07 02:04 63.36134 167.80325 8435 ft 179 kts 213°
2026-05-07 02:04 63.35183 167.78538 8429 ft 179 kts 213°
2026-05-07 02:04 63.34230 167.76751 8425 ft 178 kts 213°
2026-05-07 02:04 63.33280 167.74970 8428 ft 178 kts 213°
2026-05-07 02:05 63.32338 167.73207 8429 ft 178 kts 213°
2026-05-07 02:05 63.31390 167.71430 8430 ft 179 kts 213°
2026-05-07 02:05 63.30432 167.69638 8428 ft 179 kts 213°
2026-05-07 02:05 63.29485 167.67865 8432 ft 179 kts 213°
2026-05-07 02:06 63.28529 167.66078 8432 ft 179 kts 213°
2026-05-07 02:06 63.27574 167.64297 8431 ft 179 kts 213°
2026-05-07 02:06 63.26622 167.62524 8432 ft 179 kts 213°
2026-05-07 02:06 63.25668 167.60751 8430 ft 179 kts 213°
2026-05-07 02:07 63.24716 167.58977 8432 ft 179 kts 213°
2026-05-07 02:07 63.23123 167.56018 8430 ft 179 kts 213°
2026-05-07 02:07 63.21858 167.53672 8432 ft 179 kts 213°
2026-05-07 02:08 63.20898 167.51893 8429 ft 179 kts 213°
2026-05-07 02:08 63.20264 167.50717 8428 ft 179 kts 213°
2026-05-07 02:08 63.19310 167.48952 8428 ft 179 kts 213°
2026-05-07 02:08 63.18354 167.47182 8431 ft 179 kts 213°
2026-05-07 02:09 63.17083 167.44836 8429 ft 179 kts 213°
2026-05-07 02:09 63.16437 167.43642 8431 ft 179 kts 213°
2026-05-07 02:09 63.15493 167.41900 8432 ft 179 kts 213°
2026-05-07 02:09 63.14527 167.40122 8432 ft 179 kts 213°
2026-05-07 02:10 63.13568 167.38355 8427 ft 179 kts 213°
2026-05-07 02:10 63.12605 167.36583 8431 ft 179 kts 213°
2026-05-07 02:10 63.11660 167.34844 8432 ft 179 kts 213°
2026-05-07 02:10 63.10699 167.33078 8432 ft 179 kts 213°
2026-05-07 02:11 63.09739 167.31318 8431 ft 179 kts 213°
2026-05-07 02:11 63.08779 167.29559 8428 ft 179 kts 213°
2026-05-07 02:11 63.07833 167.27824 8431 ft 179 kts 212°
2026-05-07 02:11 63.06874 167.26070 8428 ft 179 kts 212°
2026-05-07 02:12 63.05917 167.24322 8431 ft 178 kts 212°
2026-05-07 02:12 63.04958 167.22568 8431 ft 178 kts 212°
2026-05-07 02:12 63.03998 167.20819 8432 ft 179 kts 212°
2026-05-07 02:12 63.03039 167.19070 8430 ft 179 kts 212°
2026-05-07 02:13 63.02092 167.17346 8430 ft 179 kts 212°
2026-05-07 02:13 63.01132 167.15598 8422 ft 179 kts 212°
2026-05-07 02:13 63.00170 167.13847 8426 ft 178 kts 212°
2026-05-07 02:13 62.99211 167.12106 8423 ft 179 kts 212°
2026-05-07 02:14 62.98250 167.10363 8424 ft 179 kts 212°
2026-05-07 02:14 62.97297 167.08634 8423 ft 179 kts 212°
2026-05-07 02:14 62.96324 167.06870 8426 ft 179 kts 212°
2026-05-07 02:14 62.95373 167.05149 8422 ft 180 kts 212°
2026-05-07 02:15 62.94405 167.03395 8422 ft 179 kts 212°
2026-05-07 02:15 62.93441 167.01655 8424 ft 179 kts 212°
2026-05-07 02:15 62.92475 166.99914 8420 ft 180 kts 212°
2026-05-07 02:15 62.91508 166.98169 8421 ft 179 kts 212°
2026-05-07 02:16 62.90553 166.96448 8425 ft 180 kts 212°
2026-05-07 02:16 62.89582 166.94700 8424 ft 180 kts 212°
2026-05-07 02:16 62.88613 166.92955 8417 ft 181 kts 212°
2026-05-07 02:16 62.87636 166.91196 8421 ft 182 kts 211°
2026-05-07 02:17 62.86671 166.89464 8416 ft 181 kts 211°
2026-05-07 02:17 62.85702 166.87725 8420 ft 180 kts 211°
2026-05-07 02:17 62.84728 166.85979 8413 ft 180 kts 211°
2026-05-07 02:17 62.83757 166.84240 8413 ft 179 kts 211°
2026-05-07 02:18 62.82801 166.82532 8412 ft 179 kts 211°
2026-05-07 02:18 62.81837 166.80805 8414 ft 178 kts 211°
2026-05-07 02:18 62.80871 166.79081 8412 ft 179 kts 211°
2026-05-07 02:18 62.79909 166.77365 8415 ft 179 kts 211°
2026-05-07 02:19 62.78935 166.75626 8416 ft 179 kts 211°
2026-05-07 02:19 62.77963 166.73897 8413 ft 180 kts 211°
2026-05-07 02:19 62.77005 166.72191 8414 ft 180 kts 211°
2026-05-07 02:19 62.76035 166.70466 8416 ft 180 kts 211°
2026-05-07 02:20 62.75070 166.68750 8415 ft 179 kts 211°
2026-05-07 02:20 62.74098 166.67026 8414 ft 179 kts 211°
2026-05-07 02:20 62.73126 166.65303 8413 ft 179 kts 211°
2026-05-07 02:20 62.72159 166.63589 8417 ft 180 kts 211°
2026-05-07 02:21 62.71195 166.61883 8410 ft 180 kts 211°
2026-05-07 02:21 62.70228 166.60168 8415 ft 179 kts 211°
2026-05-07 02:21 62.69257 166.58454 8412 ft 179 kts 210°
2026-05-07 02:21 62.68281 166.56732 8411 ft 180 kts 211°
2026-05-07 02:22 62.67313 166.55021 8410 ft 179 kts 210°
2026-05-07 02:22 62.66346 166.53314 8408 ft 179 kts 210°
2026-05-07 02:22 62.65382 166.51618 8409 ft 179 kts 210°
2026-05-07 02:22 62.64412 166.49912 8409 ft 179 kts 211°
2026-05-07 02:23 62.63453 166.48226 8407 ft 179 kts 210°
2026-05-07 02:23 62.62487 166.46527 8411 ft 179 kts 210°
2026-05-07 02:23 62.61520 166.44830 8412 ft 179 kts 210°
2026-05-07 02:23 62.60552 166.43132 8408 ft 179 kts 210°
2026-05-07 02:24 62.59580 166.41429 8408 ft 179 kts 210°
2026-05-07 02:24 62.58604 166.39721 8411 ft 180 kts 210°
2026-05-07 02:24 62.57630 166.38017 8411 ft 180 kts 210°
2026-05-07 02:24 62.56657 166.36314 8408 ft 181 kts 210°
2026-05-07 02:25 62.55673 166.34596 8410 ft 181 kts 210°
2026-05-07 02:25 62.54693 166.32884 8406 ft 181 kts 210°
2026-05-07 02:25 62.53705 166.31162 8410 ft 181 kts 210°
2026-05-07 02:25 62.52720 166.29447 8407 ft 181 kts 210°
2026-05-07 02:26 62.51749 166.27755 8407 ft 181 kts 210°
2026-05-07 02:26 62.50766 166.26046 8405 ft 181 kts 210°
2026-05-07 02:26 62.49784 166.24338 8404 ft 181 kts 210°
2026-05-07 02:26 62.48799 166.22630 8391 ft 181 kts 210°
2026-05-07 02:27 62.47846 166.20968 8068 ft 170 kts 210°
2026-05-07 02:27 62.46938 166.19394 7741 ft 165 kts 209°
2026-05-07 02:27 62.46053 166.17867 7475 ft 160 kts 209°
2026-05-07 02:27 62.45192 166.16380 7238 ft 156 kts 209°
2026-05-07 02:28 62.44344 166.14917 6998 ft 155 kts 209°
2026-05-07 02:28 62.43514 166.13487 6771 ft 154 kts 209°
2026-05-07 02:28 62.42679 166.12045 6545 ft 153 kts 209°
2026-05-07 02:28 62.42004 166.10184 6301 ft 166 kts 240°
2026-05-07 02:29 62.41869 166.07651 6041 ft 176 kts 274°
2026-05-07 02:29 62.42131 166.05068 5802 ft 175 kts 278°
2026-05-07 02:29 62.42165 166.02515 5566 ft 167 kts 246°
2026-05-07 02:29 62.41762 166.00220 5386 ft 162 kts 241°
2026-05-07 02:30 62.41361 165.97994 5188 ft 160 kts 241°
2026-05-07 02:30 62.40953 165.95756 5014 ft 159 kts 241°
2026-05-07 02:30 62.40541 165.93543 4831 ft 159 kts 241°
2026-05-07 02:30 62.40127 165.91341 4638 ft 158 kts 241°
2026-05-07 02:31 62.39709 165.89144 4459 ft 159 kts 241°
2026-05-07 02:31 62.39280 165.86930 4265 ft 159 kts 241°
2026-05-07 02:31 62.38847 165.84738 4076 ft 160 kts 241°
2026-05-07 02:31 62.38399 165.82537 3894 ft 160 kts 241°
2026-05-07 02:32 62.37945 165.80345 3712 ft 160 kts 241°
2026-05-07 02:32 62.37487 165.78165 3522 ft 160 kts 241°
2026-05-07 02:32 62.37024 165.75991 3342 ft 160 kts 241°
2026-05-07 02:32 62.36552 165.73812 3156 ft 160 kts 241°
2026-05-07 02:33 62.36083 165.71675 2980 ft 160 kts 241°
2026-05-07 02:33 62.35604 165.69507 2784 ft 160 kts 241°
2026-05-07 02:33 62.35121 165.67346 2602 ft 159 kts 241°
2026-05-07 02:33 62.34643 165.65200 2414 ft 159 kts 240°
2026-05-07 02:34 62.34167 165.63051 2227 ft 159 kts 241°
2026-05-07 02:34 62.33789 165.60807 2034 ft 160 kts 252°
2026-05-07 02:34 62.33499 165.58486 1852 ft 160 kts 252°
2026-05-07 02:34 62.33234 165.56185 1665 ft 161 kts 259°
2026-05-07 02:35 62.33106 165.53777 1473 ft 162 kts 262°
2026-05-07 02:35 62.33041 165.51385 1386 ft 156 kts 267°
2026-05-07 02:35 62.33012 165.49112 1378 ft 149 kts 266°
2026-05-07 02:35 62.32989 165.46911 1374 ft 146 kts 266°
2026-05-07 02:36 62.32966 165.44722 1343 ft 147 kts 267°
2026-05-07 02:36 62.32941 165.42515 1284 ft 148 kts 266°
2026-05-07 02:36 62.32917 165.40303 1228 ft 148 kts 267°
2026-05-07 02:36 62.32895 165.38112 1178 ft 148 kts 268°
2026-05-07 02:37 62.32979 165.35874 1105 ft 153 kts 283°
2026-05-07 02:37 62.33398 165.33737 1018 ft 154 kts 302°
2026-05-07 02:37 62.34072 165.32014 912 ft 149 kts 331°
2026-05-07 02:37 62.34992 165.31150 891 ft 140 kts 342°
2026-05-07 02:38 62.35884 165.30503 875 ft 135 kts 353°
2026-05-07 02:38 62.36798 165.30254 841 ft 132 kts 359°
2026-05-07 02:38 62.37721 165.30184 747 ft 128 kts
2026-05-07 02:38 62.38523 165.30228 668 ft 98 kts
2026-05-07 02:39 62.39148 165.30238 542 ft 83 kts 10°
2026-05-07 02:39 62.39684 165.30406 471 ft 72 kts 17°
2026-05-07 02:39 62.40154 165.30531 475 ft 67 kts 14°
2026-05-07 02:39 62.40634 165.30676 491 ft 73 kts 14°
2026-05-07 02:40 62.41150 165.30811 493 ft 75 kts 12°